x

Sentry Shoal (46131) Wave Buoy

8:00 - Fri 4th Sep 2015 All times are PDT. -7 hours from GMT.

  • Sig Wave height 1.0ft
  • Peak Period 2s
  • Wind
    11mph, 13mph gusts
  • Sea Temp 58°f
  • Aire Temp 50°f
  • Sea Pressure 1018.4mb
  • Sentry Shoal
  • Sentry Shoal

More Historic Weather Station data

Upgrade to MSW Pro to gain access to the past 30 days of data for over 8000 Wavebouys and Weather Stations around the globe.

Join Pro

Comparision Forecast

View Surf forecast
   
vie 09/04 8:00 1ft 2s 11 13 mph 1018.4mb 58f 50f
7:00 0.7ft 2s 13
mph
1018.3mb 58f 50f
6:00 0.7ft 2s 11 13 mph 1018.1mb 58f 51f
5:00 0.7ft 2s 9 13 mph 1017.9mb 58f 52f
4:00 0.7ft 3s 11 13 mph 1017.6mb 58f 52f
3:00 0.7ft 3s 9 11 mph 1017.6mb 58f 53f
2:00 0.3ft 2s 11 13 mph 1017.7mb 58f 53f
1:00 0.3ft 2s 9 13 mph 1017.5mb 58f 54f
12:00 0.3ft 6s 7 9 mph 1017.3mb 57f 53f
jue 09/03 11:00 0.3ft 5s 4
mph
1017mb 57f 54f
10:00 0.3ft 2s 4
mph
1016.8mb 57f 55f
9:00 0.3ft 2s 7 9 mph 1016.5mb 58f 56f
8:00 0.3ft 2s 4 7 mph 1016.1mb 58f 56f
7:00  -  2s 7 9 mph 1016mb 59f 56f
6:00  -  3s 7 9 mph 1015.9mb 60f 56f
5:00  -  2s 2 4 mph 1015.9mb 60f 57f
4:00  -  2s 2
mph
1015.8mb 61f 59f
3:00  -  2s  -  2 mph 1016mb 61f 58f
2:00  -  2s 2 4 mph 1015.9mb 60f 57f
1:00 0.3ft 4s 2
mph
1015.8mb 60f 55f
12:00 0.3ft 4s  -  2 mph 1015.9mb 59f 55f
11:00 0.3ft 4s 2 4 mph 1015.9mb 59f 54f
10:00  -  2s 2 4 mph 1015.7mb 58f 53f
9:00  -  2s 4
mph
1015.6mb 58f 53f
8:00 0.3ft 2s 4
mph
1015.5mb 57f 52f
7:00 0.3ft 2s 4
mph
1015.3mb 57f 51f
6:00 0.3ft 2s 7 9 mph 1015.1mb 57f 51f
5:00 0.3ft 2s 4 7 mph 1014.9mb 58f 52f
4:00 0.3ft 2s 9 11 mph 1014.4mb 58f 53f
3:00 0.3ft 2s 9
mph
1014.2mb 58f 53f
2:00 0.7ft 4s 7 9 mph 1013.6mb 58f 53f
1:00 0.7ft 3s 4
mph
1013.6mb 58f 53f
12:00 1ft 4s 4 7 mph 1013.4mb 57f 52f
mié 09/02 11:00 1.3ft 4s 11 13 mph 1013.1mb 56f 53f
10:00 1.6ft 4s 16 20 mph 1012.7mb 56f 53f
9:00 2.5ft 4s 4 9 mph 1012mb 56f 55f
8:00 2.5ft 4s 4 9 mph 1011.7mb 56f 55f
7:00 2.5ft 4s 18 20 mph 1010.8mb 56f 56f
6:00 2.5ft 4s 16 20 mph 1010.5mb 56f 57f
5:00 2.5ft 4s 18 20 mph 1010.4mb 56f 57f
4:00 2.5ft 4s 18 22 mph 1010.3mb 57f 57f
3:00 2.5ft 4s 18 22 mph 1009.9mb 57f 56f
2:00 2.5ft 4s 20 22 mph 1009.9mb 57f 57f
1:00 2ft 4s 18 22 mph 1009.4mb 57f 57f
12:00 1ft 3s 18 22 mph 1009.3mb 58f 57f
11:00 1.3ft 3s 11 13 mph 1009.3mb 58f 55f
10:00 0.7ft 3s 11
mph
1008.9mb 58f 55f
9:00 0.3ft 3s 9 13 mph 1008.3mb 58f 54f
8:00 0.3ft 3s 11
mph
1008mb 58f 54f
7:00 0.3ft 2s 2 4 mph 1008.1mb 58f 54f
6:00 0.3ft 2s 4 7 mph 1007.8mb 58f 54f
5:00 0.3ft 4s 2 4 mph 1007.5mb 58f 55f
4:00 0.3ft 4s 9 13 mph 1007.4mb 58f 54f
3:00 0.3ft 4s 7 9 mph 1007mb 58f 54f
2:00 0.3ft 3s 4 7 mph 1006.8mb 58f 56f
1:00 0.7ft 3s 2 7 mph 1006.4mb 57f 56f
12:00 0.7ft 4s 7 9 mph 1006.3mb 56f 56f
mar 09/01 11:00 1.3ft 4s 7 9 mph 1005.8mb 56f 56f
10:00 1.6ft 4s 7 9 mph 1005.3mb 56f 57f
9:00 2.5ft 4s 2 4 mph 1004.9mb 56f 56f
8:00 3ft 4s 16 18 mph 1003.8mb 56f 57f
7:00 4ft 4s 22 27 mph 1003.3mb 56f 58f
6:00 4ft 4s 25 31 mph 1003mb 57f 59f
5:00 3.5ft 4s 27 31 mph 1003.5mb 58f 58f
4:00 3.5ft 4s 27 34 mph 1004.2mb 58f 58f
3:00 3ft 4s 27 31 mph 1004.9mb 58f 58f
2:00 2.5ft 3s 27 31 mph 1005.5mb 58f 57f
1:00 1.3ft 2s 20 27 mph 1006.5mb 58f 58f
12:00 1.6ft 3s 20 25 mph 1006.8mb 58f 59f
11:00 1.3ft 2s 20 22 mph 1007.1mb 58f 58f
10:00 1ft 2s 13 18 mph 1007.1mb 58f 58f
9:00 0.7ft 2s 7 9 mph 1007.6mb 58f 56f
8:00 0.3ft 2s  -  2 mph 1007.7mb 59f 56f
7:00 0.3ft 2s 4
mph
1008mb 59f 55f
6:00 0.3ft 2s 7
mph
1008.2mb 59f 55f
5:00 0.3ft 2s 9 13 mph 1008.1mb 59f 59f
4:00 0.3ft 2s 9 11 mph 1008.5mb 59f 57f
3:00 0.3ft 3s 7 9 mph 1008.7mb 58f 57f
2:00 0.7ft 3s 4 7 mph 1008.5mb 58f 56f
1:00 0.7ft 3s 4 7 mph 1008mb 58f 57f
12:00 0.7ft 3s 2
mph
1007.6mb 58f 59f
lun 08/31 11:00 1ft 4s 7 11 mph 1007.1mb 57f 60f
10:00 1ft 4s 7
mph
1006.4mb 56f 59f
9:00 1.3ft 4s 4
mph
1005.6mb 56f 56f
8:00 1.3ft 4s 2
mph
1005mb 57f 57f
7:00 1.6ft 4s 2
mph
1004.8mb 57f 58f
6:00 1.6ft 3s 9 11 mph 1004.7mb 57f 59f
5:00 2ft 3s 11 13 mph 1005.3mb 59f 59f